{"data":{"norad_id":48968,"epoch":"2026-05-24T23:42:41.349312Z","epoch_age_seconds":75525,"freshness":"FRESH","line1":"1 48968U 21060B   26144.98797858  .00000087  00000+0  16861-3 0  9991","line2":"2 48968  87.9107 231.2160 0001892 130.0510 230.0792 13.25832564237143","mean_motion":13.25832564,"eccentricity":0.0001892,"inclination_deg":87.9107,"raan_deg":231.216,"arg_perigee_deg":130.051,"mean_anomaly_deg":230.0792,"bstar":0.00016861,"rev_number":23714,"period_min":108.61099954096,"perigee_km":1161.0967854644,"apogee_km":1163.9501713895,"semimajor_km":7540.6604784269,"source":"CELESTRAK","updated_at":"2026-05-25T13:38:22.449641Z"}}